Location: Pedholt
(56.0260°N, 10.2097°E)
Time: 05:59:00
(UTC+00:00)

Cosmos 724 - Pass Details

Date: 14 July 2020
Orbit: 858 x 936 km, 65.6° (Epoch: 14 August)

Event Time Altitude Azimuth Distance (km) Brightness Sun altitude
Exits shadow 00:59:21 11° 222° (SW) 2,456 6.0 -9.8°
Maximum altitude 01:05:01 86° 136° (SE) 877 4.3 -9.5°
Drops below altitude 10° 01:10:55 10° 47° (NE) 2,542 7.9 -9.2°
Sets 01:13:26 0° 48° (NE) 3,495 8.9 -9.0°
